Location: Newark
(40.7830°N, 8.7430°E)
Time: 08:37:43
(UTC+00:00)

ISS - Pass Details

Date: 21 September 2019
Orbit: 411 x 421 km, 51.6° (Epoch: 18 October)

Event Time Altitude Azimuth Distance (km) Brightness Sun altitude
Rises 18:29:30 0° 237° (WSW) 2,333 0.8 -13.0°
Reaches altitude 10° 18:31:35 10° 240° (WSW) 1,473 -0.3 -13.4°
Maximum altitude 18:34:53 71° 324° (NW) 437 -3.6 -14.0°
Enters shadow 18:37:28 16° 49° (NE) 1,184 -1.8 -14.5°
